Weather History for Keahole Point, HI

Change the Weather History Date:

Saturday, November 3, 2012

  Actual Average Record
Temperature  
Mean Temperature 80 °F -  
Max Temperature 84 °F 82 °F 90 °F (1984)
Min Temperature 75 °F 72 °F 68 °F (1985)
Cooling Degree Days 14    
Growing Degree Days 30 (Base 50)    
Moisture  
Dew Point 64 °F    
Average Humidity 60    
Maximum Humidity 69    
Minimum Humidity 47    
Precipitation  
Precipitation 0.00 in - - ()
Sea Level Pressure  
Sea Level Pressure 29.95 in    
Wind  
Wind Speed 10 mph (North)    
Max Wind Speed 15 mph    
Max Gust Speed -    
Visibility 10 miles    
Events      
Averages and records for this station are not official NWS values.
T = Trace of Precipitation, MM = Missing Value Source: NWS Daily Summary

Daily Weather History Graph

Daily Weather History Graph

Search for Another Location

Airport:

Trip Planner

Search our weather history database for the weather conditions in past years. The results will help you decide how hot, cold, wet, or windy it might be!

Date:

Astronomy

Nov. 03, 2012 Rise Set
Actual Time 6:26 AM HST 5:48 PM HST
Civil Twilight 6:03 AM HST 6:11 PM HST
Nautical Twilight 5:37 AM HST 6:37 PM HST
Astronomical Twilight 5:11 AM HST 7:03 PM HST
Moon 9:50 PM HST (11/3) 10:26 AM HST (11/3)
Length of Visible Light 12h 07m
Length of Day
11h 21m
Waning Gibbous, 78% of the Moon is Illuminated
Nov 3
Waning Gibbous
Nov 6
Last Quarter
Nov 13
New
Nov 20
First Quarter
Nov 28
Full

Hourly Weather History & Observations

Time (HST) Temp. Heat Index Dew Point Humidity Pressure Visibility Wind Dir Wind Speed Gust Speed Precip Events Conditions
12:53 AM 78.1 °F - 66.0 °F 66% 29.95 in 10.0 mi NNW 9.2 mph - N/A   Overcast
1:16 AM 78.8 °F - 66.2 °F 65% 29.95 in 10.0 mi NW 6.9 mph - N/A   Overcast
1:44 AM 78.8 °F - 66.2 °F 65% 29.95 in 10.0 mi NW 10.4 mph - N/A   Overcast
1:53 AM 78.1 °F - 66.0 °F 66% 29.95 in 10.0 mi NNW 8.1 mph - N/A   Overcast
2:53 AM 78.1 °F - 64.9 °F 64% 29.93 in 10.0 mi NNE 9.2 mph - N/A   Mostly Cloudy
3:16 AM 77.0 °F - 64.4 °F 65% 29.93 in 10.0 mi NNE 10.4 mph - N/A   Mostly Cloudy
3:34 AM 77.0 °F - 64.4 °F 65% 29.93 in 10.0 mi NNE 6.9 mph - N/A   Mostly Cloudy
3:53 AM 77.0 °F - 64.0 °F 64% 29.93 in 10.0 mi NE 10.4 mph - N/A   Overcast
4:11 AM 77.0 °F - 64.4 °F 65% 29.93 in 10.0 mi NNE 8.1 mph - N/A   Mostly Cloudy
4:53 AM 75.9 °F - 64.0 °F 67% 29.93 in 10.0 mi NNE 9.2 mph - N/A   Partly Cloudy
5:53 AM 75.0 °F - 64.0 °F 69% 29.95 in 10.0 mi NE 9.2 mph - N/A   Clear
6:53 AM 75.0 °F - 60.1 °F 60% 29.97 in 10.0 mi NE 8.1 mph - N/A   Clear
7:53 AM 80.1 °F 81.1 °F 61.0 °F 52% 29.98 in 10.0 mi NNE 10.4 mph - N/A   Clear
8:53 AM 82.0 °F 82.4 °F 60.1 °F 47% 29.98 in 10.0 mi North 10.4 mph - N/A   Clear
9:53 AM 82.0 °F 83.0 °F 62.1 °F 51% 29.99 in 10.0 mi NNW 11.5 mph - N/A   Clear
10:53 AM 80.1 °F 81.9 °F 64.9 °F 60% 29.98 in 10.0 mi NNW 9.2 mph - N/A   Scattered Clouds
11:53 AM 84.0 °F 86.3 °F 66.0 °F 55% 29.96 in 10.0 mi NW 12.7 mph - N/A   Clear
12:53 PM 82.0 °F 83.8 °F 64.9 °F 56% 29.94 in 10.0 mi NW 12.7 mph - N/A   Mostly Cloudy
1:53 PM 84.0 °F 86.3 °F 66.0 °F 55% 29.92 in 10.0 mi NW 13.8 mph - N/A   Clear
2:53 PM 84.9 °F 85.9 °F 63.0 °F 48% 29.90 in 10.0 mi NNW 15.0 mph - N/A   Overcast
3:53 PM 82.9 °F 84.6 °F 64.9 °F 54% 29.91 in 10.0 mi NNW 15.0 mph - N/A   Scattered Clouds
4:53 PM 81.0 °F 83.0 °F 66.0 °F 60% 29.92 in 10.0 mi North 15.0 mph - N/A   Overcast
5:53 PM 80.1 °F 82.1 °F 66.0 °F 62% 29.94 in 10.0 mi North 10.4 mph - N/A   Overcast
6:53 PM 79.0 °F - 64.9 °F 62% 29.95 in 10.0 mi North 4.6 mph - N/A   Clear
7:53 PM 78.1 °F - 64.0 °F 62% 29.97 in 10.0 mi SSE 5.8 mph - N/A   Clear
8:53 PM 77.0 °F - 63.0 °F 62% 29.99 in 10.0 mi ESE 6.9 mph - N/A   Partly Cloudy
9:53 PM 78.1 °F - 63.0 °F 60% 29.99 in 10.0 mi SE 10.4 mph - N/A   Overcast
10:53 PM 78.1 °F - 63.0 °F 60% 29.99 in 10.0 mi SE 10.4 mph - N/A   Overcast
11:53 PM 78.1 °F - 64.0 °F 62% 29.97 in 10.0 mi SSE 11.5 mph - N/A   Mostly Cloudy